User: anonymous   Login
Location: Arcueil
(48.7999°N, 2.3326°E)
Time: 21:49:02
(UTC+00:00)
Language:

KEPLER-4 (ANTILLES) - Orbit

View from above orbital plane
View from above orbital plane
View from above satellite
View from above satellite

Ground track
Ground track

The orbit data is extracted from the following two-line orbital elements,

1 46498U 20068N   24057.44971630  .00039030  00000-0  15011-2 0  9994
2 46498  97.7901  18.3244 0007377 357.5907   2.5293 15.26270415187749
Epoch (UTC): 26 February 2024 10:47:35
Eccentricity: 0.0007377
inclination: 97.7901°
perigee height: 482 km
apogee height: 492 km
right ascension of ascending node: 18.3244°
argument of perigee: 357.5907°
revolutions per day: 15.26270415
mean anomaly at epoch: 2.5293°
orbit number at epoch: 18774

The dashed part of the orbit path shows where the satellite is in the earth's shadow,  

DLR